Time,TemperatureF,DewpointF,PressureIn,WindDirection,WindDirectionDegrees,WindSpeedMPH,WindSpeedGustMPH,Humidity,HourlyPrecipIn,Conditions,Clouds,dailyrainin,SoftwareType,DateUTC
2013-06-27 00:02:00,79.0,63.4,29.83,NE,38,2.3,0.0,59,0.00,CLR,SCT,0.00,WeatherDisplay:10.37,2013-06-26 21:02:00,
2013-06-27 00:07:00,78.8,63.3,29.83,NE,38,0.0,0.0,59,0.00,CLR,SCT,0.00,WeatherDisplay:10.37,2013-06-26 21:07:00,
2013-06-27 00:12:00,78.7,63.2,29.83,NE,38,0.0,0.3,59,0.00,CLR,SCT,0.00,WeatherDisplay:10.37,2013-06-26 21:12:00,
2013-06-27 00:17:00,78.7,63.6,29.84,NNE,32,4.6,4.6,60,0.00,CLR,SCT,0.00,WeatherDisplay:10.37,2013-06-26 21:17:00,
2013-06-27 00:18:00,78.6,63.6,29.84,NNE,32,1.2,0.0,60,0.00,CLR,SCT,0.00,WeatherDisplay:10.37,2013-06-26 21:18:00,
2013-06-27 06:40:00,84.1,63.5,29.84,NE,45,0.0,1.0,50,0.00,CLR,SCT,0.00,WeatherDisplay:10.37,2013-06-27 03:40:00,
2013-06-27 06:45:00,84.7,63.4,29.84,NE,45,1.0,3.0,49,0.00,CLR,SCT,0.00,WeatherDisplay:10.37,2013-06-27 03:45:00,
2013-06-27 07:45:00,86.6,62.1,29.83,SSW,206,0.0,0.0,44,0.00,CLR,SCT,0.00,WeatherDisplay:10.37,2013-06-27 04:45:00,
2013-06-27 09:38:00,84.3,63.1,29.84,NE,44,8.0,0.0,49,0.00,CLR,SCT,0.00,WeatherDisplay:10.37,2013-06-27 06:38:00,
2013-06-27 09:43:00,84.9,63.6,29.84,NE,44,4.0,4.0,49,0.00,CLR,SCT,0.00,WeatherDisplay:10.37,2013-06-27 06:43:00,
2013-06-27 09:48:00,84.8,62.3,29.84,NE,43,1.2,1.2,47,0.00,CLR,SCT,0.00,WeatherDisplay:10.37,2013-06-27 06:48:00,
2013-06-27 09:53:00,85.1,62.6,29.84,NE,40,3.5,3.5,47,0.00,CLR,SCT,0.00,WeatherDisplay:10.37,2013-06-27 06:53:00,
2013-06-27 09:58:00,85.2,62.1,29.84,NE,38,3.5,3.5,46,0.00,CLR,SCT,0.00,WeatherDisplay:10.37,2013-06-27 06:58:00,
2013-06-27 10:03:00,85.0,61.9,29.84,West,260,4.0,4.0,46,0.00,CLR,SCT,0.00,WeatherDisplay:10.37,2013-06-27 07:03:00,
2013-06-27 10:08:00,85.1,62.0,29.84,WSW,257,1.2,0.0,46,0.00,CLR,SCT,0.00,WeatherDisplay:10.37,2013-06-27 07:08:00,
2013-06-27 10:13:00,85.5,61.7,29.84,WSW,257,0.0,0.0,45,0.00,CLR,SCT,0.00,WeatherDisplay:10.37,2013-06-27 07:13:00,
2013-06-27 10:18:00,86.2,62.4,29.84,NW,311,4.0,4.0,45,0.00,CLR,SCT,0.00,WeatherDisplay:10.37,2013-06-27 07:18:00,
2013-06-27 10:23:00,86.0,62.8,29.84,NW,321,3.5,0.0,46,0.00,CLR,SCT,0.00,WeatherDisplay:10.37,2013-06-27 07:23:00,
2013-06-27 10:28:00,86.1,62.3,29.83,WNW,292,4.6,4.6,45,0.00,CLR,SCT,0.00,WeatherDisplay:10.37,2013-06-27 07:28:00,
2013-06-27 10:33:00,86.2,62.4,29.83,SSW,196,3.5,3.5,45,0.00,CLR,SCT,0.00,WeatherDisplay:10.37,2013-06-27 07:33:00,
2013-06-27 10:38:00,86.3,62.5,29.83,SSW,196,2.3,0.0,45,0.00,CLR,SCT,0.00,WeatherDisplay:10.37,2013-06-27 07:38:00,
2013-06-27 10:43:00,86.9,62.4,29.83,WSW,248,3.5,3.5,44,0.00,CLR,SCT,0.00,WeatherDisplay:10.37,2013-06-27 07:43:00,
2013-06-27 10:48:00,87.4,62.2,29.83,West,276,1.2,2.2,43,0.00,CLR,SCT,0.00,WeatherDisplay:10.37,2013-06-27 07:48:00,
2013-06-27 10:53:00,86.7,61.5,29.83,NNW,334,3.5,3.5,43,0.00,CLR,SCT,0.00,WeatherDisplay:10.37,2013-06-27 07:53:00,
2013-06-27 10:58:00,87.0,62.5,29.83,NNW,329,0.0,0.0,44,0.00,CLR,SCT,0.00,WeatherDisplay:10.37,2013-06-27 07:58:00,
2013-06-27 11:03:00,87.9,62.6,29.83,West,261,3.5,3.5,43,0.00,CLR,SCT,0.00,WeatherDisplay:10.37,2013-06-27 08:03:00,
2013-06-27 11:08:00,88.3,61.6,29.83,West,271,4.6,4.6,41,0.00,CLR,SCT,0.00,WeatherDisplay:10.37,2013-06-27 08:08:00,
2013-06-27 11:13:00,87.7,62.4,29.84,West,270,3.5,3.5,43,0.00,CLR,SCT,0.00,WeatherDisplay:10.37,2013-06-27 08:13:00,
2013-06-27 11:18:00,86.9,61.7,29.83,ENE,71,3.5,3.5,43,0.00,CLR,SCT,0.00,WeatherDisplay:10.37,2013-06-27 08:18:00,
2013-06-27 11:23:00,86.8,61.6,29.83,ENE,69,0.0,0.2,43,0.00,CLR,SCT,0.00,WeatherDisplay:10.37,2013-06-27 08:23:00,
2013-06-27 11:28:00,87.2,62.0,29.83,SW,234,3.5,3.5,43,0.00,CLR,SCT,0.00,WeatherDisplay:10.37,2013-06-27 08:28:00,
2013-06-27 11:33:00,87.3,61.4,29.83,ENE,78,2.3,2.3,42,0.00,CLR,SCT,0.00,WeatherDisplay:10.37,2013-06-27 08:33:00,
2013-06-27 11:38:00,87.2,62.0,29.83,NNE,29,6.0,6.0,43,0.00,CLR,SCT,0.00,WeatherDisplay:10.37,2013-06-27 08:38:00,
2013-06-27 11:43:00,86.9,61.7,29.83,NE,40,4.6,4.6,43,0.00,CLR,SCT,0.00,WeatherDisplay:10.37,2013-06-27 08:43:00,
2013-06-27 11:48:00,87.0,61.8,29.83,NNE,24,6.9,6.9,43,0.00,CLR,SCT,0.00,WeatherDisplay:10.37,2013-06-27 08:48:00,
2013-06-27 11:53:00,87.5,62.2,29.83,NNE,24,0.0,0.0,43,0.00,CLR,SCT,0.00,WeatherDisplay:10.37,2013-06-27 08:53:00,
2013-06-27 11:58:00,87.4,61.5,29.83,NE,50,4.6,4.6,42,0.00,CLR,SCT,0.00,WeatherDisplay:10.37,2013-06-27 08:58:00,
2013-06-27 12:03:00,87.1,61.9,29.83,East,86,4.6,4.6,43,0.00,CLR,SCT,0.00,WeatherDisplay:10.37,2013-06-27 09:03:00,
2013-06-27 12:08:00,86.5,62.0,29.83,NNE,32,6.9,6.9,44,0.00,CLR,SCT,0.00,WeatherDisplay:10.37,2013-06-27 09:08:00,
2013-06-27 12:13:00,86.6,62.1,29.83,ENE,73,8.1,8.1,44,0.00,CLR,SCT,0.00,WeatherDisplay:10.37,2013-06-27 09:13:00,
2013-06-27 12:18:00,86.2,61.7,29.83,NNW,346,9.2,9.2,44,0.00,CLR,SCT,0.00,WeatherDisplay:10.37,2013-06-27 09:18:00,
2013-06-27 12:23:00,86.3,61.8,29.83,NNE,14,8.1,8.1,44,0.00,CLR,SCT,0.00,WeatherDisplay:10.37,2013-06-27 09:23:00,
2013-06-27 12:28:00,86.5,62.0,29.83,NNW,346,11.5,11.5,44,0.00,CLR,SCT,0.00,WeatherDisplay:10.37,2013-06-27 09:28:00,
2013-06-27 12:33:00,86.7,61.5,29.83,ENE,59,11.5,11.5,43,0.00,CLR,SCT,0.00,WeatherDisplay:10.37,2013-06-27 09:33:00,
2013-06-27 12:35:00,86.4,64.4,29.82,ESE,123,5.0,8.0,48,0.00,CLR,SCT,0.00,WeatherDisplay:10.37,2013-06-27 09:35:00,
2013-06-27 12:39:00,86.8,61.6,29.83,NNE,19,9.2,9.2,43,0.00,CLR,SCT,0.00,WeatherDisplay:10.37,2013-06-27 09:39:00,
2013-06-27 12:40:00,86.8,64.2,29.81,SE,132,3.0,7.0,47,0.00,CLR,SCT,0.00,WeatherDisplay:10.37,2013-06-27 09:40:00,
2013-06-27 12:44:00,86.8,61.6,29.83,East,86,8.1,8.1,43,0.00,CLR,SCT,0.00,WeatherDisplay:10.37,2013-06-27 09:44:00,
2013-06-27 12:45:00,87.0,63.7,29.81,NNE,20,3.0,12.0,46,0.00,CLR,SCT,0.00,WeatherDisplay:10.37,2013-06-27 09:45:00,
2013-06-27 12:49:00,87.4,61.5,29.82,NNW,346,10.4,10.4,42,0.00,CLR,SCT,0.00,WeatherDisplay:10.37,2013-06-27 09:49:00,
2013-06-27 12:50:00,86.9,62.4,29.82,NNE,20,5.0,10.0,44,0.00,CLR,SCT,0.00,WeatherDisplay:10.37,2013-06-27 09:50:00,
2013-06-27 12:54:00,87.7,61.8,29.83,NNW,343,4.6,4.6,42,0.00,CLR,SCT,0.00,WeatherDisplay:10.37,2013-06-27 09:54:00,
2013-06-27 12:55:00,86.5,62.6,29.81,NE,46,7.0,12.0,45,0.00,CLR,SCT,0.00,WeatherDisplay:10.37,2013-06-27 09:55:00,
2013-06-27 12:59:00,87.8,61.2,29.83,NE,53,8.1,8.1,41,0.00,CLR,SCT,0.00,WeatherDisplay:10.37,2013-06-27 09:59:00,
2013-06-27 13:00:00,86.6,62.1,29.81,NE,44,1.0,10.0,44,0.00,CLR,SCT,0.00,WeatherDisplay:10.37,2013-06-27 10:00:00,
2013-06-27 13:04:00,87.7,61.1,29.83,NNW,338,10.4,10.4,41,0.00,CLR,SCT,0.00,WeatherDisplay:10.37,2013-06-27 10:04:00,
2013-06-27 13:05:00,87.1,62.5,29.81,NNE,22,3.0,7.0,44,0.00,CLR,SCT,0.00,WeatherDisplay:10.37,2013-06-27 10:05:00,
2013-06-27 13:09:00,87.5,60.9,29.82,ENE,67,5.8,5.8,41,0.00,CLR,SCT,0.00,WeatherDisplay:10.37,2013-06-27 10:09:00,
2013-06-27 13:10:00,87.5,62.2,29.81,NNE,28,2.0,7.0,43,0.00,CLR,SCT,0.00,WeatherDisplay:10.37,2013-06-27 10:10:00,
2013-06-27 13:14:00,87.6,61.0,29.83,NNW,346,7.0,7.0,41,0.00,CLR,SCT,0.00,WeatherDisplay:10.37,2013-06-27 10:14:00,
2013-06-27 13:15:00,87.3,62.7,29.81,NE,46,2.0,11.0,44,0.00,CLR,SCT,0.00,WeatherDisplay:10.37,2013-06-27 10:15:00,
2013-06-27 13:19:00,87.1,60.5,29.83,NE,35,10.4,10.4,41,0.00,CLR,SCT,0.00,WeatherDisplay:10.37,2013-06-27 10:19:00,
2013-06-27 13:20:00,86.9,62.4,29.81,ENE,66,3.0,11.0,44,0.00,CLR,SCT,0.00,WeatherDisplay:10.37,2013-06-27 10:20:00,
2013-06-27 13:24:00,87.1,61.2,29.83,ENE,78,8.0,8.0,42,0.00,CLR,SCT,0.00,WeatherDisplay:10.37,2013-06-27 10:24:00,
2013-06-27 13:25:00,86.9,62.4,29.81,ENE,57,3.0,10.0,44,0.00,CLR,SCT,0.00,WeatherDisplay:10.37,2013-06-27 10:25:00,
2013-06-27 13:29:00,87.1,60.5,29.83,ENE,58,8.1,8.1,41,0.00,CLR,SCT,0.00,WeatherDisplay:10.37,2013-06-27 10:29:00,
2013-06-27 13:30:00,87.0,63.1,29.81,NNE,28,2.0,10.0,45,0.00,CLR,SCT,0.00,WeatherDisplay:10.37,2013-06-27 10:30:00,
2013-06-27 13:34:00,86.7,60.9,29.83,East,91,6.9,6.9,42,0.00,CLR,SCT,0.00,WeatherDisplay:10.37,2013-06-27 10:34:00,
2013-06-27 13:35:00,86.9,63.0,29.81,NNE,26,3.0,8.0,45,0.00,CLR,SCT,0.00,WeatherDisplay:10.37,2013-06-27 10:35:00,
2013-06-27 13:39:00,86.6,60.8,29.83,ENE,71,8.1,8.1,42,0.00,CLR,SCT,0.00,WeatherDisplay:10.37,2013-06-27 10:39:00,
2013-06-27 13:40:00,86.8,63.5,29.81,NNE,23,3.0,6.0,46,0.00,CLR,SCT,0.00,WeatherDisplay:10.37,2013-06-27 10:40:00,
2013-06-27 13:44:00,86.3,60.5,29.83,ENE,66,8.1,8.1,42,0.00,CLR,SCT,0.00,WeatherDisplay:10.37,2013-06-27 10:44:00,
2013-06-27 13:45:00,87.2,63.3,29.81,NE,55,2.0,5.0,45,0.00,CLR,SCT,0.00,WeatherDisplay:10.37,2013-06-27 10:45:00,
2013-06-27 13:49:00,86.2,60.4,29.83,NE,51,3.5,3.5,42,0.00,CLR,SCT,0.00,WeatherDisplay:10.37,2013-06-27 10:49:00,
2013-06-27 13:50:00,86.9,64.2,29.81,East,98,3.0,11.0,47,0.00,CLR,SCT,0.00,WeatherDisplay:10.37,2013-06-27 10:50:00,
2013-06-27 13:54:00,86.2,60.4,29.83,East,84,4.6,4.6,42,0.00,CLR,SCT,0.00,WeatherDisplay:10.37,2013-06-27 10:54:00,
2013-06-27 13:55:00,86.3,64.3,29.81,ESE,105,2.0,7.0,48,0.00,CLR,SCT,0.00,WeatherDisplay:10.37,2013-06-27 10:55:00,
2013-06-27 13:59:00,86.1,60.3,29.83,ESE,106,3.5,3.5,42,0.00,CLR,SCT,0.00,WeatherDisplay:10.37,2013-06-27 10:59:00,
2013-06-27 14:00:00,85.7,64.3,29.81,East,101,5.0,9.0,49,0.00,CLR,SCT,0.00,WeatherDisplay:10.37,2013-06-27 11:00:00,
2013-06-27 14:04:00,85.9,64.5,29.83,SE,124,6.9,6.9,49,0.00,CLR,SCT,0.00,WeatherDisplay:10.37,2013-06-27 11:04:00,
2013-06-27 14:05:00,85.0,63.7,29.81,ESE,108,3.0,9.0,49,0.00,CLR,SCT,0.00,WeatherDisplay:10.37,2013-06-27 11:05:00,
2013-06-27 14:09:00,85.0,64.3,29.83,ESE,109,4.6,4.6,50,0.00,CLR,SCT,0.00,WeatherDisplay:10.37,2013-06-27 11:09:00,
2013-06-27 14:10:00,84.4,64.3,29.81,ESE,121,7.0,11.0,51,0.00,CLR,SCT,0.00,WeatherDisplay:10.37,2013-06-27 11:10:00,
2013-06-27 14:14:00,84.8,64.7,29.83,East,93,6.9,6.9,51,0.00,CLR,SCT,0.00,WeatherDisplay:10.37,2013-06-27 11:14:00,
2013-06-27 14:15:00,84.1,64.6,29.81,ESE,115,0.0,8.0,52,0.00,CLR,SCT,0.00,WeatherDisplay:10.37,2013-06-27 11:15:00,
2013-06-27 14:19:00,84.6,64.5,29.83,ESE,105,8.1,8.1,51,0.00,CLR,SCT,0.00,WeatherDisplay:10.37,2013-06-27 11:19:00,
2013-06-27 14:20:00,83.8,64.8,29.81,East,101,5.0,11.0,53,0.00,CLR,SCT,0.00,WeatherDisplay:10.37,2013-06-27 11:20:00,
2013-06-27 14:24:00,84.7,63.4,29.82,ENE,66,4.6,4.6,49,0.00,CLR,SCT,0.00,WeatherDisplay:10.37,2013-06-27 11:24:00,
2013-06-27 14:25:00,84.0,65.0,29.81,ESE,122,3.0,9.0,53,0.00,CLR,SCT,0.00,WeatherDisplay:10.37,2013-06-27 11:25:00,
2013-06-27 14:29:00,84.9,65.3,29.83,East,82,4.6,4.6,52,0.00,CLR,SCT,0.00,WeatherDisplay:10.37,2013-06-27 11:29:00,
2013-06-27 14:30:00,84.5,65.5,29.81,SE,142,8.0,11.0,53,0.00,CLR,SCT,0.00,WeatherDisplay:10.37,2013-06-27 11:30:00,
2013-06-27 14:34:00,85.1,62.6,29.82,NNE,26,10.4,10.4,47,0.00,CLR,SCT,0.00,WeatherDisplay:10.37,2013-06-27 11:34:00,
2013-06-27 14:35:00,84.2,64.7,29.81,SE,132,6.0,12.0,52,0.00,CLR,SCT,0.00,WeatherDisplay:10.37,2013-06-27 11:35:00,
2013-06-27 14:39:00,85.2,62.7,29.82,NNE,30,5.8,5.8,47,0.00,CLR,SCT,0.00,WeatherDisplay:10.37,2013-06-27 11:39:00,
2013-06-27 14:40:00,83.5,65.1,29.81,ESE,114,7.0,11.0,54,0.00,CLR,SCT,0.00,WeatherDisplay:10.37,2013-06-27 11:40:00,
2013-06-27 14:44:00,85.1,65.5,29.83,ESE,104,6.9,6.9,52,0.00,CLR,SCT,0.00,WeatherDisplay:10.37,2013-06-27 11:44:00,
2013-06-27 14:45:00,83.1,65.3,29.81,ESE,107,3.0,11.0,55,0.00,CLR,SCT,0.00,WeatherDisplay:10.37,2013-06-27 11:45:00,
2013-06-27 14:49:00,84.7,65.7,29.82,East,98,5.8,5.8,53,0.00,CLR,SCT,0.00,WeatherDisplay:10.37,2013-06-27 11:49:00,
2013-06-27 14:50:00,83.1,65.3,29.81,ESE,102,6.0,11.0,55,0.00,CLR,SCT,0.00,WeatherDisplay:10.37,2013-06-27 11:50:00,
2013-06-27 14:54:00,84.5,64.4,29.82,SSW,205,11.5,11.5,51,0.00,CLR,SCT,0.00,WeatherDisplay:10.37,2013-06-27 11:54:00,
2013-06-27 14:55:00,82.9,65.1,29.81,East,101,3.0,10.0,55,0.00,CLR,SCT,0.00,WeatherDisplay:10.37,2013-06-27 11:55:00,
2013-06-27 14:59:00,84.7,64.0,29.82,SE,135,9.2,9.2,50,0.00,CLR,SCT,0.00,WeatherDisplay:10.37,2013-06-27 11:59:00,
2013-06-27 15:00:00,82.5,65.2,29.81,East,101,6.0,11.0,56,0.00,CLR,SCT,0.00,WeatherDisplay:10.37,2013-06-27 12:00:00,
2013-06-27 15:04:00,85.2,65.0,29.82,ESE,123,9.2,9.2,51,0.00,CLR,SCT,0.00,WeatherDisplay:10.37,2013-06-27 12:04:00,
2013-06-27 15:05:00,81.9,65.2,29.81,ESE,104,6.0,10.0,57,0.00,CLR,SCT,0.00,WeatherDisplay:10.37,2013-06-27 12:05:00,
2013-06-27 15:09:00,85.0,64.8,29.82,ESE,112,10.4,10.4,51,0.00,CLR,SCT,0.00,WeatherDisplay:10.37,2013-06-27 12:09:00,
2013-06-27 15:10:00,81.4,65.2,29.81,ESE,109,6.0,12.0,58,0.00,CLR,SCT,0.00,WeatherDisplay:10.37,2013-06-27 12:10:00,
2013-06-27 15:14:00,85.4,65.2,29.82,ESE,120,4.6,4.6,51,0.00,CLR,SCT,0.00,WeatherDisplay:10.37,2013-06-27 12:14:00,
2013-06-27 15:15:00,80.9,65.2,29.81,ESE,106,6.0,14.0,59,0.00,CLR,SCT,0.00,WeatherDisplay:10.37,2013-06-27 12:15:00,
2013-06-27 15:19:00,86.3,64.3,29.82,ESE,112,8.1,8.1,48,0.00,CLR,SCT,0.00,WeatherDisplay:10.37,2013-06-27 12:19:00,
2013-06-27 15:20:00,81.0,65.3,29.81,ESE,104,6.0,11.0,59,0.00,CLR,SCT,0.00,WeatherDisplay:10.37,2013-06-27 12:20:00,
2013-06-27 15:24:00,86.4,65.0,29.82,SE,138,11.5,11.5,49,0.00,CLR,SCT,0.00,WeatherDisplay:10.37,2013-06-27 12:24:00,
2013-06-27 15:25:00,81.0,65.3,29.81,East,100,5.0,11.0,59,0.00,CLR,SCT,0.00,WeatherDisplay:10.37,2013-06-27 12:25:00,
2013-06-27 15:29:00,86.3,64.9,29.82,SE,124,6.9,6.9,49,0.00,CLR,SCT,0.00,WeatherDisplay:10.37,2013-06-27 12:29:00,
2013-06-27 15:30:00,80.8,65.6,29.81,East,99,3.0,9.0,60,0.00,CLR,SCT,0.00,WeatherDisplay:10.37,2013-06-27 12:30:00,
2013-06-27 15:34:00,86.5,64.5,29.81,SE,130,2.3,2.3,48,0.00,CLR,SCT,0.00,WeatherDisplay:10.37,2013-06-27 12:34:00,
2013-06-27 15:35:00,80.4,65.7,29.81,ESE,105,5.0,14.0,61,0.00,CLR,SCT,0.00,WeatherDisplay:10.37,2013-06-27 12:35:00,
2013-06-27 15:40:00,80.0,65.3,29.81,ESE,104,7.0,11.0,61,0.00,CLR,SCT,0.00,WeatherDisplay:10.37,2013-06-27 12:40:00,
2013-06-27 15:45:00,79.7,65.5,29.81,East,101,7.0,13.0,62,0.00,CLR,SCT,0.00,WeatherDisplay:10.37,2013-06-27 12:45:00,
2013-06-27 15:50:00,79.5,65.3,29.81,ESE,108,3.0,12.0,62,0.00,CLR,SCT,0.00,WeatherDisplay:10.37,2013-06-27 12:50:00,
2013-06-27 15:55:00,79.4,65.2,29.81,ESE,118,5.0,12.0,62,0.00,CLR,SCT,0.00,WeatherDisplay:10.37,2013-06-27 12:55:00,
2013-06-27 16:00:00,79.3,65.6,29.82,ESE,115,5.0,9.0,63,0.00,CLR,SCT,0.00,WeatherDisplay:10.37,2013-06-27 13:00:00,
2013-06-27 16:05:00,79.1,65.4,29.82,ESE,105,2.0,11.0,63,0.00,CLR,SCT,0.00,WeatherDisplay:10.37,2013-06-27 13:05:00,
2013-06-27 16:10:00,79.3,65.6,29.82,East,91,5.0,8.0,63,0.00,CLR,SCT,0.00,WeatherDisplay:10.37,2013-06-27 13:10:00,
2013-06-27 16:15:00,79.3,65.1,29.82,East,93,5.0,7.0,62,0.00,CLR,SCT,0.00,WeatherDisplay:10.37,2013-06-27 13:15:00,
2013-06-27 16:20:00,79.3,65.6,29.82,East,101,3.0,8.0,63,0.00,CLR,SCT,0.00,WeatherDisplay:10.37,2013-06-27 13:20:00,
2013-06-27 16:25:00,79.1,65.4,29.82,ESE,113,6.0,9.0,63,0.00,CLR,SCT,0.00,WeatherDisplay:10.37,2013-06-27 13:25:00,
2013-06-27 16:30:00,78.7,65.5,29.82,ESE,114,6.0,11.0,64,0.00,CLR,SCT,0.00,WeatherDisplay:10.37,2013-06-27 13:30:00,
2013-06-27 16:35:00,78.6,65.8,29.82,ESE,106,2.0,9.0,65,0.00,CLR,SCT,0.00,WeatherDisplay:10.37,2013-06-27 13:35:00,
2013-06-27 16:40:00,78.5,65.3,29.82,ESE,106,5.0,9.0,64,0.00,CLR,SCT,0.00,WeatherDisplay:10.37,2013-06-27 13:40:00,
2013-06-27 16:45:00,78.5,65.8,29.82,East,98,2.0,8.0,65,0.00,CLR,SCT,0.00,WeatherDisplay:10.37,2013-06-27 13:45:00,
2013-06-27 16:50:00,78.6,65.8,29.82,East,95,2.0,7.0,65,0.00,CLR,SCT,0.00,WeatherDisplay:10.37,2013-06-27 13:50:00,
2013-06-27 16:55:00,78.6,65.8,29.82,East,101,6.0,8.0,65,0.00,CLR,SCT,0.00,WeatherDisplay:10.37,2013-06-27 13:55:00,
2013-06-27 17:00:00,78.5,65.8,29.82,ESE,107,0.0,7.0,65,0.00,CLR,SCT,0.00,WeatherDisplay:10.37,2013-06-27 14:00:00,
2013-06-27 17:05:00,78.5,66.2,29.82,ESE,112,3.0,8.0,66,0.00,CLR,SCT,0.00,WeatherDisplay:10.37,2013-06-27 14:05:00,
2013-06-27 17:10:00,78.2,65.9,29.83,ESE,103,3.0,7.0,66,0.00,CLR,SCT,0.00,WeatherDisplay:10.37,2013-06-27 14:10:00,
2013-06-27 20:07:00,78.2,65.9,29.83,East,87,14.0,0.0,66,0.00,CLR,SCT,0.00,WeatherDisplay:10.37,2013-06-27 17:07:00,
2013-06-27 20:12:00,78.0,65.7,29.83,ESE,114,5.8,5.8,66,0.00,CLR,SCT,0.00,WeatherDisplay:10.37,2013-06-27 17:12:00,
2013-06-27 20:17:00,77.8,66.0,29.83,East,94,9.0,9.0,67,0.00,CLR,SCT,0.00,WeatherDisplay:10.37,2013-06-27 17:17:00,
2013-06-27 20:22:00,77.6,65.8,29.83,East,97,5.8,5.8,67,0.00,CLR,SCT,0.00,WeatherDisplay:10.37,2013-06-27 17:22:00,
2013-06-27 20:27:00,77.4,66.0,29.83,ESE,114,6.9,6.9,68,0.00,CLR,SCT,0.00,WeatherDisplay:10.37,2013-06-27 17:27:00,
2013-06-27 20:32:00,77.3,65.9,29.83,East,97,4.0,4.0,68,0.00,CLR,SCT,0.00,WeatherDisplay:10.37,2013-06-27 17:32:00,
2013-06-27 20:37:00,77.3,65.9,29.83,East,85,3.5,3.5,68,0.00,CLR,SCT,0.00,WeatherDisplay:10.37,2013-06-27 17:37:00,
2013-06-27 20:42:00,77.3,65.9,29.83,ENE,78,6.9,6.9,68,0.00,CLR,SCT,0.00,WeatherDisplay:10.37,2013-06-27 17:42:00,
2013-06-27 20:47:00,77.2,65.8,29.83,East,79,3.5,0.0,68,0.00,CLR,SCT,0.00,WeatherDisplay:10.37,2013-06-27 17:47:00,
2013-06-27 20:52:00,77.1,65.7,29.83,East,82,5.8,5.8,68,0.00,CLR,SCT,0.00,WeatherDisplay:10.37,2013-06-27 17:52:00,
2013-06-27 20:57:00,77.1,65.7,29.83,East,82,2.3,2.3,68,0.00,CLR,SCT,0.00,WeatherDisplay:10.37,2013-06-27 17:57:00,
2013-06-27 21:02:00,77.1,65.7,29.84,East,82,3.5,3.5,68,0.00,CLR,SCT,0.00,WeatherDisplay:10.37,2013-06-27 18:02:00,
2013-06-27 21:07:00,77.0,66.0,29.84,East,82,3.5,3.5,69,0.00,CLR,SCT,0.00,WeatherDisplay:10.37,2013-06-27 18:07:00,
2013-06-27 21:12:00,77.0,66.0,29.84,East,82,4.0,4.0,69,0.00,CLR,SCT,0.00,WeatherDisplay:10.37,2013-06-27 18:12:00,
2013-06-27 21:18:00,77.0,66.0,29.84,East,82,3.5,3.5,69,0.00,CLR,SCT,0.00,WeatherDisplay:10.37,2013-06-27 18:18:00,
2013-06-27 21:23:00,76.9,66.0,29.84,East,83,3.5,3.5,69,0.00,CLR,SCT,0.00,WeatherDisplay:10.37,2013-06-27 18:23:00,
2013-06-27 21:28:00,76.7,65.8,29.84,East,83,3.0,3.0,69,0.00,CLR,SCT,0.00,WeatherDisplay:10.37,2013-06-27 18:28:00,
2013-06-27 21:33:00,76.7,65.8,29.85,East,83,3.5,3.5,69,0.00,CLR,SCT,0.00,WeatherDisplay:10.37,2013-06-27 18:33:00,
2013-06-27 21:38:00,76.6,65.7,29.85,East,80,4.6,4.6,69,0.00,CLR,SCT,0.00,WeatherDisplay:10.37,2013-06-27 18:38:00,
2013-06-27 21:43:00,76.5,66.0,29.85,East,81,2.3,2.3,70,0.00,CLR,SCT,0.00,WeatherDisplay:10.37,2013-06-27 18:43:00,
2013-06-27 21:48:00,76.4,65.9,29.85,East,81,1.2,0.0,70,0.00,CLR,SCT,0.00,WeatherDisplay:10.37,2013-06-27 18:48:00,
2013-06-27 21:53:00,76.4,66.3,29.85,East,81,3.5,3.5,71,0.00,CLR,SCT,0.00,WeatherDisplay:10.37,2013-06-27 18:53:00,
2013-06-27 21:58:00,76.3,66.2,29.85,East,80,4.6,4.6,71,0.00,CLR,SCT,0.00,WeatherDisplay:10.37,2013-06-27 18:58:00,
2013-06-27 22:03:00,76.1,66.0,29.85,East,83,4.0,4.0,71,0.00,CLR,SCT,0.00,WeatherDisplay:10.37,2013-06-27 19:03:00,
2013-06-27 22:08:00,76.1,66.0,29.85,East,83,2.3,2.3,71,0.00,CLR,SCT,0.00,WeatherDisplay:10.37,2013-06-27 19:08:00,
2013-06-27 22:13:00,76.1,66.0,29.86,East,83,3.5,3.5,71,0.00,CLR,SCT,0.00,WeatherDisplay:10.37,2013-06-27 19:13:00,
2013-06-27 22:18:00,76.0,65.9,29.86,East,83,0.0,0.0,71,0.00,CLR,SCT,0.00,WeatherDisplay:10.37,2013-06-27 19:18:00,
2013-06-27 22:23:00,75.9,65.8,29.86,East,83,3.5,3.5,71,0.00,CLR,SCT,0.00,WeatherDisplay:10.37,2013-06-27 19:23:00,
2013-06-27 22:28:00,75.9,65.8,29.86,East,83,2.3,2.3,71,0.00,CLR,SCT,0.00,WeatherDisplay:10.37,2013-06-27 19:28:00,
2013-06-27 22:33:00,75.8,65.7,29.86,East,83,0.0,0.0,71,0.00,CLR,SCT,0.00,WeatherDisplay:10.37,2013-06-27 19:33:00,
2013-06-27 22:38:00,75.8,65.7,29.86,East,83,1.2,0.0,71,0.00,CLR,SCT,0.00,WeatherDisplay:10.37,2013-06-27 19:38:00,
2013-06-27 22:43:00,75.8,65.7,29.86,East,83,0.0,0.0,71,0.00,CLR,SCT,0.00,WeatherDisplay:10.37,2013-06-27 19:43:00,
2013-06-27 22:48:00,75.9,65.8,29.86,East,83,0.0,0.0,71,0.00,CLR,SCT,0.00,WeatherDisplay:10.37,2013-06-27 19:48:00,
2013-06-27 22:53:00,75.8,65.7,29.86,East,83,0.0,0.0,71,0.00,CLR,SCT,0.00,WeatherDisplay:10.37,2013-06-27 19:53:00,
2013-06-27 22:58:00,75.9,65.8,29.86,East,83,0.0,0.0,71,0.00,CLR,SCT,0.00,WeatherDisplay:10.37,2013-06-27 19:58:00,
2013-06-27 23:03:00,76.0,65.9,29.86,East,83,0.0,0.0,71,0.00,CLR,SCT,0.00,WeatherDisplay:10.37,2013-06-27 20:03:00,
2013-06-27 23:08:00,76.0,65.9,29.86,East,83,0.0,0.0,71,0.00,CLR,SCT,0.00,WeatherDisplay:10.37,2013-06-27 20:08:00,
2013-06-27 23:13:00,76.0,65.9,29.87,East,83,0.0,0.0,71,0.00,CLR,SCT,0.00,WeatherDisplay:10.37,2013-06-27 20:13:00,
2013-06-27 23:18:00,75.9,65.8,29.86,East,83,0.0,0.0,71,0.00,CLR,SCT,0.00,WeatherDisplay:10.37,2013-06-27 20:18:00,
2013-06-27 23:23:00,75.9,65.8,29.86,East,83,0.0,0.0,71,0.00,CLR,SCT,0.00,WeatherDisplay:10.37,2013-06-27 20:23:00,
2013-06-27 23:28:00,75.9,65.8,29.86,East,83,0.0,0.0,71,0.00,CLR,SCT,0.00,WeatherDisplay:10.37,2013-06-27 20:28:00,
2013-06-27 23:34:00,75.8,66.1,29.86,East,83,0.0,0.0,72,0.00,CLR,SCT,0.00,WeatherDisplay:10.37,2013-06-27 20:34:00,
2013-06-27 23:39:00,75.8,66.1,29.86,East,83,0.0,0.0,72,0.00,CLR,SCT,0.00,WeatherDisplay:10.37,2013-06-27 20:39:00,
2013-06-27 23:44:00,75.7,66.0,29.86,East,83,0.0,0.0,72,0.00,CLR,SCT,0.00,WeatherDisplay:10.37,2013-06-27 20:44:00,
2013-06-27 23:49:00,75.8,66.1,29.86,East,83,0.0,0.0,72,0.00,CLR,SCT,0.00,WeatherDisplay:10.37,2013-06-27 20:49:00,
2013-06-27 23:54:00,75.7,66.0,29.86,East,83,0.0,0.0,72,0.00,CLR,SCT,0.00,WeatherDisplay:10.37,2013-06-27 20:54:00,
2013-06-27 23:59:00,75.7,66.0,29.86,East,83,0.0,0.0,72,0.00,CLR,SCT,0.00,WeatherDisplay:10.37,2013-06-27 20:59:00,